{"data":{"norad_id":66501,"epoch":"2026-09-20T05:57:27.608544Z","epoch_age_seconds":112049,"freshness":"FRESH","line1":"1 66501U 25263S   26263.24823621  .00011835  00000+0  43879-3 0  9994","line2":"2 66501  43.0006 331.9725 0001409 278.2870  81.7822 15.27587925 48653","mean_motion":15.27587925,"eccentricity":0.0001409,"inclination_deg":43.0006,"raan_deg":331.9725,"arg_perigee_deg":278.287,"mean_anomaly_deg":81.7822,"bstar":0.00043879,"rev_number":4865,"period_min":94.266259665544,"perigee_km":482.0586280639,"apogee_km":483.99210361859,"semimajor_km":6861.1623658412,"source":"CELESTRAK","updated_at":"2026-09-21T09:00:35.922285Z"}}